Year,Month,Day,Hour,Minute,Value (Times are PST for temperature in C)
2012,07,12,00,00,16.10
2012,07,12,00,01,16.40
2012,07,12,00,02,16.60
2012,07,12,00,03,16.90
2012,07,12,00,04,17.10
2012,07,12,00,05,17.30
2012,07,12,00,06,17.40
2012,07,12,00,07,17.60
2012,07,12,00,08,17.60
2012,07,12,00,09,17.70
2012,07,12,00,10,17.70
2012,07,12,00,11,17.80
2012,07,12,00,12,17.80
2012,07,12,00,13,17.90
2012,07,12,00,14,17.90
2012,07,12,00,15,18.00
2012,07,12,00,16,18.00
2012,07,12,00,17,18.00
2012,07,12,00,18,18.00
2012,07,12,00,19,18.00
2012,07,12,00,20,18.00
2012,07,12,00,21,18.00
2012,07,12,00,22,17.90
2012,07,12,00,23,17.90
2012,07,12,00,24,17.90
2012,07,12,00,25,17.90
2012,07,12,00,26,17.90
2012,07,12,00,27,17.80
2012,07,12,00,28,17.80
2012,07,12,00,29,17.80
2012,07,12,00,30,17.90
2012,07,12,00,31,17.90
2012,07,12,00,32,17.90
2012,07,12,00,33,18.00
2012,07,12,00,34,18.00
2012,07,12,00,35,18.00
2012,07,12,00,36,17.90
2012,07,12,00,37,17.90
2012,07,12,00,38,17.90
2012,07,12,00,39,17.90
2012,07,12,00,40,17.90
2012,07,12,00,41,17.90
2012,07,12,00,42,17.90
2012,07,12,00,43,17.90
2012,07,12,00,44,17.90
2012,07,12,00,45,17.90
2012,07,12,00,46,17.90
2012,07,12,00,47,17.90
2012,07,12,00,48,17.80
2012,07,12,00,49,17.80
2012,07,12,00,50,17.80
2012,07,12,00,51,17.80
2012,07,12,00,52,17.70
2012,07,12,00,53,17.70
2012,07,12,00,54,17.70
2012,07,12,00,55,17.70
2012,07,12,00,56,17.70
2012,07,12,00,57,17.70
2012,07,12,00,58,17.70
2012,07,12,00,59,17.70
2012,07,12,01,00,17.70
2012,07,12,01,01,17.80
2012,07,12,01,02,17.80
2012,07,12,01,03,17.70
2012,07,12,01,04,17.70
2012,07,12,01,05,17.60
2012,07,12,01,06,17.60
2012,07,12,01,07,17.50
2012,07,12,01,08,17.50
2012,07,12,01,09,17.60
2012,07,12,01,10,17.60
2012,07,12,01,11,17.60
2012,07,12,01,12,17.60
2012,07,12,01,13,17.50
2012,07,12,01,14,17.50
2012,07,12,01,15,17.50
2012,07,12,01,16,17.50
2012,07,12,01,17,17.60
2012,07,12,01,18,17.60
2012,07,12,01,19,17.60
2012,07,12,01,20,17.70
2012,07,12,01,21,17.70
2012,07,12,01,22,17.80
2012,07,12,01,23,17.70
2012,07,12,01,24,17.70
2012,07,12,01,25,17.70
2012,07,12,01,26,17.60
2012,07,12,01,27,17.60
2012,07,12,01,28,17.50
2012,07,12,01,29,17.40
2012,07,12,01,30,17.40
2012,07,12,01,31,17.40
2012,07,12,01,32,17.40
2012,07,12,01,33,17.30
2012,07,12,01,34,17.30
2012,07,12,01,35,17.30
2012,07,12,01,36,17.30
2012,07,12,01,37,17.30
2012,07,12,01,38,17.30
2012,07,12,01,39,17.30
2012,07,12,01,40,17.30
2012,07,12,01,41,17.30
2012,07,12,01,42,17.30
2012,07,12,01,43,17.30
2012,07,12,01,44,17.30
2012,07,12,01,45,17.30
2012,07,12,01,46,17.30
2012,07,12,01,47,17.30
2012,07,12,01,48,17.30
2012,07,12,01,49,17.40
2012,07,12,01,50,17.40
2012,07,12,01,51,17.40
2012,07,12,01,52,17.40
2012,07,12,01,53,17.40
2012,07,12,01,54,17.30
2012,07,12,01,55,17.30
2012,07,12,01,56,17.20
2012,07,12,01,57,17.20
2012,07,12,01,58,17.20
2012,07,12,01,59,17.20
2012,07,12,02,00,17.20
2012,07,12,02,01,17.20
2012,07,12,02,02,17.20
2012,07,12,02,03,17.20
2012,07,12,02,04,17.20
2012,07,12,02,05,17.10
2012,07,12,02,06,17.10
2012,07,12,02,07,17.10
2012,07,12,02,08,17.10
2012,07,12,02,09,17.20
2012,07,12,02,10,17.20
2012,07,12,02,11,17.20
2012,07,12,02,12,17.20
2012,07,12,02,13,17.20
2012,07,12,02,14,17.20
2012,07,12,02,15,17.30
2012,07,12,02,16,17.30
2012,07,12,02,17,17.30
2012,07,12,02,18,17.30
2012,07,12,02,19,17.40
2012,07,12,02,20,17.40
2012,07,12,02,21,17.40
2012,07,12,02,22,17.40
2012,07,12,02,23,17.30
2012,07,12,02,24,17.30
2012,07,12,02,25,17.30
2012,07,12,02,26,17.30
2012,07,12,02,27,17.30
2012,07,12,02,28,17.30
2012,07,12,02,29,17.30
2012,07,12,02,30,17.30
2012,07,12,02,31,17.20
2012,07,12,02,32,17.20
2012,07,12,02,33,17.20
2012,07,12,02,34,17.20
2012,07,12,02,35,17.20
2012,07,12,02,36,17.20
2012,07,12,02,37,17.10
2012,07,12,02,38,17.10
2012,07,12,02,39,17.10
2012,07,12,02,40,17.10
2012,07,12,02,41,17.10
2012,07,12,02,42,17.10
2012,07,12,02,43,17.10
2012,07,12,02,44,17.10
2012,07,12,02,45,17.10
2012,07,12,02,46,17.10
2012,07,12,02,47,17.10
2012,07,12,02,48,17.10
2012,07,12,02,49,17.10
2012,07,12,02,50,17.10
2012,07,12,02,51,17.10
2012,07,12,02,52,17.10
2012,07,12,02,53,17.10
2012,07,12,02,54,17.10
2012,07,12,02,55,17.10
2012,07,12,02,56,17.10
2012,07,12,02,57,17.10
2012,07,12,02,58,17.00
2012,07,12,02,59,17.00
2012,07,12,03,00,16.90
2012,07,12,03,01,16.90
2012,07,12,03,02,17.00
2012,07,12,03,03,17.00
2012,07,12,03,04,17.00
2012,07,12,03,05,17.10
2012,07,12,03,06,17.10
2012,07,12,03,07,17.10
2012,07,12,03,08,17.00
2012,07,12,03,09,17.00
2012,07,12,03,10,17.00
2012,07,12,03,11,16.90
2012,07,12,03,12,16.90
2012,07,12,03,13,16.90
2012,07,12,03,14,16.90
2012,07,12,03,15,16.90
2012,07,12,03,16,16.90
2012,07,12,03,17,16.90
2012,07,12,03,18,16.90
2012,07,12,03,19,16.80
2012,07,12,03,20,16.80
2012,07,12,03,21,16.80
2012,07,12,03,22,16.80
2012,07,12,03,23,16.80
2012,07,12,03,24,16.80
2012,07,12,03,25,16.80
2012,07,12,03,26,16.80
2012,07,12,03,27,16.80
2012,07,12,03,28,16.80
2012,07,12,03,29,16.80
2012,07,12,03,30,16.80
2012,07,12,03,31,16.80
2012,07,12,03,32,16.80
2012,07,12,03,33,16.80
2012,07,12,03,34,16.80
2012,07,12,03,35,16.80
2012,07,12,03,36,16.80
2012,07,12,03,37,16.80
2012,07,12,03,38,16.80
2012,07,12,03,39,16.80
2012,07,12,03,40,16.80
2012,07,12,03,41,16.80
2012,07,12,03,42,16.80
2012,07,12,03,43,16.80
2012,07,12,03,44,16.70
2012,07,12,03,45,16.70
2012,07,12,03,46,16.70
2012,07,12,03,47,16.70
2012,07,12,03,48,16.70
2012,07,12,03,49,16.70
2012,07,12,03,50,16.70
2012,07,12,03,51,16.70
2012,07,12,03,52,16.70
2012,07,12,03,53,16.70
2012,07,12,03,54,16.70
2012,07,12,03,55,16.70
2012,07,12,03,56,16.60
2012,07,12,03,57,16.60
2012,07,12,03,58,16.50
2012,07,12,03,59,16.40
2012,07,12,04,00,16.40
2012,07,12,04,01,16.40
2012,07,12,04,02,16.40
2012,07,12,04,03,16.40
2012,07,12,04,04,16.40
2012,07,12,04,05,16.40
2012,07,12,04,06,16.40
2012,07,12,04,07,16.50
2012,07,12,04,08,16.50
2012,07,12,04,09,16.60
2012,07,12,04,10,16.50
2012,07,12,04,11,16.50
2012,07,12,04,12,16.40
2012,07,12,04,13,16.40
2012,07,12,04,14,16.40
2012,07,12,04,15,16.40
2012,07,12,04,16,16.40
2012,07,12,04,17,16.40
2012,07,12,04,18,16.40
2012,07,12,04,19,16.40
2012,07,12,04,20,16.40
2012,07,12,04,21,16.30
2012,07,12,04,22,16.30
2012,07,12,04,23,16.30
2012,07,12,04,24,16.30
2012,07,12,04,25,16.30
2012,07,12,04,26,16.40
2012,07,12,04,27,16.40
2012,07,12,04,28,16.40
2012,07,12,04,29,16.40
2012,07,12,04,30,16.40
2012,07,12,04,31,16.50
2012,07,12,04,32,16.50
2012,07,12,04,33,16.50
2012,07,12,04,34,16.50
2012,07,12,04,35,16.50
2012,07,12,04,36,16.50
2012,07,12,04,37,16.50
2012,07,12,04,38,16.50
2012,07,12,04,39,16.50
2012,07,12,04,40,16.50
2012,07,12,04,41,16.50
2012,07,12,04,42,16.60
2012,07,12,04,43,16.60
2012,07,12,04,44,16.60
2012,07,12,04,45,16.60
2012,07,12,04,46,16.60
2012,07,12,04,47,16.60
2012,07,12,04,48,16.50
2012,07,12,04,49,16.50
2012,07,12,04,50,16.50
2012,07,12,04,51,16.50
2012,07,12,04,52,16.50
2012,07,12,04,53,16.40
2012,07,12,04,54,16.40
2012,07,12,04,55,16.40
2012,07,12,04,56,16.50
2012,07,12,04,57,16.50
2012,07,12,04,58,16.50
2012,07,12,04,59,16.50
2012,07,12,05,00,16.40
2012,07,12,05,01,16.40
2012,07,12,05,02,16.40
2012,07,12,05,03,16.40
2012,07,12,05,04,16.40
2012,07,12,05,05,16.40
2012,07,12,05,06,16.40
2012,07,12,05,07,16.40
2012,07,12,05,08,16.30
2012,07,12,05,09,16.30
2012,07,12,05,10,16.30
2012,07,12,05,11,16.30
2012,07,12,05,12,16.20
2012,07,12,05,13,16.20
2012,07,12,05,14,16.20
2012,07,12,05,15,16.20
2012,07,12,05,16,16.20
2012,07,12,05,17,16.20
2012,07,12,05,18,16.20
2012,07,12,05,19,16.20
2012,07,12,05,20,16.20
2012,07,12,05,21,16.30
2012,07,12,05,22,16.30
2012,07,12,05,23,16.30
2012,07,12,05,24,16.40
2012,07,12,05,25,16.40
2012,07,12,05,26,16.40
2012,07,12,05,27,16.40
2012,07,12,05,28,16.40
2012,07,12,05,29,16.30
2012,07,12,05,30,16.30
2012,07,12,05,31,16.30
2012,07,12,05,32,16.30
2012,07,12,05,33,16.20
2012,07,12,05,34,16.20
2012,07,12,05,35,16.20
2012,07,12,05,36,16.10
2012,07,12,05,37,16.10
2012,07,12,05,38,16.10
2012,07,12,05,39,16.10
2012,07,12,05,40,16.10
2012,07,12,05,41,16.00
2012,07,12,05,42,15.90
2012,07,12,05,43,15.90
2012,07,12,05,44,15.80
2012,07,12,05,45,15.80
2012,07,12,05,46,15.70
2012,07,12,05,47,15.70
2012,07,12,05,48,15.70
2012,07,12,05,49,15.80
2012,07,12,05,50,15.80
2012,07,12,05,51,15.80
2012,07,12,05,52,15.80
2012,07,12,05,53,15.80
2012,07,12,05,54,15.80
2012,07,12,05,55,15.80
2012,07,12,05,56,15.80
2012,07,12,05,57,15.80
2012,07,12,05,58,15.70
2012,07,12,05,59,15.60
2012,07,12,06,00,15.60
2012,07,12,06,01,15.60
2012,07,12,06,02,15.70
2012,07,12,06,03,15.80
2012,07,12,06,04,15.80
2012,07,12,06,05,15.80
2012,07,12,06,06,15.90
2012,07,12,06,07,15.90
2012,07,12,06,08,16.00
2012,07,12,06,09,16.00
2012,07,12,06,10,16.10
2012,07,12,06,11,16.00
2012,07,12,06,12,16.10
2012,07,12,06,13,16.10
2012,07,12,06,14,16.20
2012,07,12,06,15,16.20
2012,07,12,06,16,16.20
2012,07,12,06,17,16.20
2012,07,12,06,18,16.20
2012,07,12,06,19,16.30
2012,07,12,06,20,16.30
2012,07,12,06,21,16.30
2012,07,12,06,22,16.30
2012,07,12,06,23,16.30
2012,07,12,06,24,16.30
2012,07,12,06,25,16.30
2012,07,12,06,26,16.30
2012,07,12,06,27,16.30
2012,07,12,06,28,16.30
2012,07,12,06,29,16.20
2012,07,12,06,30,16.20
2012,07,12,06,31,16.20
2012,07,12,06,32,16.20
2012,07,12,06,33,16.20
2012,07,12,06,34,16.10
2012,07,12,06,35,16.10
2012,07,12,06,36,16.10
2012,07,12,06,37,16.10
2012,07,12,06,38,16.10
2012,07,12,06,39,16.10
2012,07,12,06,40,16.10
2012,07,12,06,41,16.10
2012,07,12,06,42,16.10
2012,07,12,06,43,16.10
2012,07,12,06,44,16.10
2012,07,12,06,45,16.10
2012,07,12,06,46,16.10
2012,07,12,06,47,16.10
2012,07,12,06,48,16.10
2012,07,12,06,49,16.00
2012,07,12,06,50,16.00
2012,07,12,06,51,16.00
2012,07,12,06,52,16.00
2012,07,12,06,53,16.00
2012,07,12,06,54,16.00
2012,07,12,06,55,16.10
2012,07,12,06,56,16.00
2012,07,12,06,57,16.00
2012,07,12,06,58,16.00
2012,07,12,06,59,16.00
2012,07,12,07,00,16.00
2012,07,12,07,01,16.00
2012,07,12,07,02,16.10
2012,07,12,07,03,16.10
2012,07,12,07,04,16.10
2012,07,12,07,05,16.10
2012,07,12,07,06,16.20
2012,07,12,07,07,16.20
2012,07,12,07,08,16.30
2012,07,12,07,09,16.30
2012,07,12,07,10,16.30
2012,07,12,07,11,16.30
2012,07,12,07,12,16.30
2012,07,12,07,13,16.30
2012,07,12,07,14,16.30
2012,07,12,07,15,16.30
2012,07,12,07,16,16.30
2012,07,12,07,17,16.30
2012,07,12,07,18,16.30
2012,07,12,07,19,16.20
2012,07,12,07,20,16.20
2012,07,12,07,21,16.20
2012,07,12,07,22,16.20
2012,07,12,07,23,16.10
2012,07,12,07,24,16.10
2012,07,12,07,25,16.00
2012,07,12,07,26,16.00
2012,07,12,07,27,16.00
2012,07,12,07,28,16.00
2012,07,12,07,29,16.00
2012,07,12,07,30,15.90
2012,07,12,07,31,15.90
2012,07,12,07,32,15.90
2012,07,12,07,33,15.90
2012,07,12,07,34,16.00
2012,07,12,07,35,16.00
2012,07,12,07,36,16.10
2012,07,12,07,37,16.10
2012,07,12,07,38,16.10
2012,07,12,07,39,16.20
2012,07,12,07,40,16.30
2012,07,12,07,41,16.30
2012,07,12,07,42,16.30
2012,07,12,07,43,16.30
2012,07,12,07,44,16.40
2012,07,12,07,45,16.30
2012,07,12,07,46,16.30
2012,07,12,07,47,16.30
2012,07,12,07,48,16.30
2012,07,12,07,49,16.30
2012,07,12,07,50,16.20
2012,07,12,07,51,16.20
2012,07,12,07,52,16.20
2012,07,12,07,53,16.10
2012,07,12,07,54,16.10
2012,07,12,07,55,16.20
2012,07,12,07,56,16.20
2012,07,12,07,57,16.20
2012,07,12,07,58,16.20
2012,07,12,07,59,16.20
2012,07,12,08,00,16.20
2012,07,12,08,01,16.10
2012,07,12,08,02,16.10
2012,07,12,08,03,16.10
2012,07,12,08,04,16.10
2012,07,12,08,05,16.00
2012,07,12,08,06,16.00
2012,07,12,08,07,15.90
2012,07,12,08,08,15.80
2012,07,12,08,09,15.80
2012,07,12,08,10,15.80
2012,07,12,08,11,15.80
2012,07,12,08,12,15.90
2012,07,12,08,13,16.00
2012,07,12,08,14,16.10
2012,07,12,08,15,16.20
2012,07,12,08,16,16.20
2012,07,12,08,17,16.30
2012,07,12,08,18,16.40
2012,07,12,08,19,16.40
2012,07,12,08,20,16.50
2012,07,12,08,21,16.50
2012,07,12,08,22,16.50
2012,07,12,08,23,16.40
2012,07,12,08,24,16.50
2012,07,12,08,25,16.50
2012,07,12,08,26,16.60
2012,07,12,08,27,16.60
2012,07,12,08,28,16.70
2012,07,12,08,29,16.70
2012,07,12,08,30,16.70
2012,07,12,08,31,16.70
2012,07,12,08,32,16.70
2012,07,12,08,33,16.70
2012,07,12,08,34,16.70
2012,07,12,08,35,16.90
2012,07,12,08,36,16.90
2012,07,12,08,37,17.00
2012,07,12,08,38,17.00
2012,07,12,08,39,17.00
2012,07,12,08,40,17.00
2012,07,12,08,41,17.00
2012,07,12,08,42,16.90
2012,07,12,08,43,16.90
2012,07,12,08,44,16.90
2012,07,12,08,45,16.80
2012,07,12,08,46,16.80
2012,07,12,08,47,16.70
2012,07,12,08,48,16.70
2012,07,12,08,49,16.60
2012,07,12,08,50,16.60
2012,07,12,08,51,16.60
2012,07,12,08,52,16.60
2012,07,12,08,53,16.50
2012,07,12,08,54,16.50
2012,07,12,08,55,16.40
2012,07,12,08,56,16.40
2012,07,12,08,57,16.40
2012,07,12,08,58,16.40
2012,07,12,08,59,16.40
2012,07,12,09,00,16.30
2012,07,12,09,01,16.30
2012,07,12,09,02,16.20
2012,07,12,09,03,16.20
2012,07,12,09,04,16.20
2012,07,12,09,05,16.10
2012,07,12,09,06,16.10
2012,07,12,09,07,16.10
2012,07,12,09,08,16.00
2012,07,12,09,09,16.00
2012,07,12,09,10,15.90
2012,07,12,09,11,15.90
2012,07,12,09,12,15.90
2012,07,12,09,13,15.90
2012,07,12,09,14,15.90
2012,07,12,09,15,15.80
2012,07,12,09,16,15.80
2012,07,12,09,17,15.70
2012,07,12,09,18,15.70
2012,07,12,09,19,15.70
2012,07,12,09,20,15.70
2012,07,12,09,21,15.70
2012,07,12,09,22,15.70
2012,07,12,09,23,15.70
2012,07,12,09,24,15.70
2012,07,12,09,25,15.70
2012,07,12,09,26,15.70
2012,07,12,09,27,15.70
2012,07,12,09,28,15.70
2012,07,12,09,29,15.80
2012,07,12,09,30,15.80
2012,07,12,09,31,15.80
2012,07,12,09,32,15.80
2012,07,12,09,33,15.90
2012,07,12,09,34,15.90
2012,07,12,09,35,15.90
2012,07,12,09,36,15.90
2012,07,12,09,37,15.90
2012,07,12,09,38,16.00
2012,07,12,09,39,16.00
2012,07,12,09,40,16.00
2012,07,12,09,41,16.00
2012,07,12,09,42,16.10
2012,07,12,09,43,16.10
2012,07,12,09,44,16.10
2012,07,12,09,45,16.10
2012,07,12,09,46,16.10
2012,07,12,09,47,16.10
2012,07,12,09,48,16.10
2012,07,12,09,49,16.20
2012,07,12,09,50,16.20
2012,07,12,09,51,16.30
2012,07,12,09,52,16.30
2012,07,12,09,53,16.40
2012,07,12,09,54,16.40
2012,07,12,09,55,16.50
2012,07,12,09,56,16.60
2012,07,12,09,57,16.70
2012,07,12,09,58,16.80
2012,07,12,09,59,16.90
2012,07,12,10,00,17.00
2012,07,12,10,01,17.10
2012,07,12,10,02,17.20
2012,07,12,10,03,17.20
2012,07,12,10,04,17.30
2012,07,12,10,05,17.40
2012,07,12,10,06,17.50
2012,07,12,10,07,17.60
2012,07,12,10,08,17.70
2012,07,12,10,09,17.70
2012,07,12,10,10,17.80
2012,07,12,10,11,17.90
2012,07,12,10,12,18.00
2012,07,12,10,13,18.10
2012,07,12,10,14,18.20
2012,07,12,10,15,18.20
2012,07,12,10,16,18.30
2012,07,12,10,17,18.40
2012,07,12,10,18,18.40
2012,07,12,10,19,18.50
2012,07,12,10,20,18.60
2012,07,12,10,21,18.60
2012,07,12,10,22,18.70
2012,07,12,10,23,18.80
2012,07,12,10,24,18.80
2012,07,12,10,25,18.90
2012,07,12,10,26,19.00
2012,07,12,10,27,19.10
2012,07,12,10,28,19.20
2012,07,12,10,29,19.30
2012,07,12,10,30,19.30
2012,07,12,10,31,19.40
2012,07,12,10,32,19.40
2012,07,12,10,33,19.50
2012,07,12,10,34,19.50
2012,07,12,10,35,19.60
2012,07,12,10,36,19.60
2012,07,12,10,37,19.70
2012,07,12,10,38,19.80
2012,07,12,10,39,19.80
2012,07,12,10,40,19.90
2012,07,12,10,41,19.90
2012,07,12,10,42,20.00
2012,07,12,10,43,20.00
2012,07,12,10,44,20.00
2012,07,12,10,45,20.10
2012,07,12,10,46,20.10
2012,07,12,10,47,20.20
2012,07,12,10,48,20.20
2012,07,12,10,49,20.20
2012,07,12,10,50,20.30
2012,07,12,10,51,20.30
2012,07,12,10,52,20.40
2012,07,12,10,53,20.40
2012,07,12,10,54,20.40
2012,07,12,10,55,20.50
2012,07,12,10,56,20.50
2012,07,12,10,57,20.60
2012,07,12,10,58,20.60
2012,07,12,10,59,20.70
2012,07,12,11,00,20.70
2012,07,12,11,01,20.80
2012,07,12,11,02,20.90
2012,07,12,11,03,20.90
2012,07,12,11,04,21.00
2012,07,12,11,05,21.00
2012,07,12,11,06,21.10
2012,07,12,11,07,21.20
2012,07,12,11,08,21.30
2012,07,12,11,09,21.30
2012,07,12,11,10,21.40
2012,07,12,11,11,21.40
2012,07,12,11,12,21.40
2012,07,12,11,13,21.50
2012,07,12,11,14,21.50
2012,07,12,11,15,21.60
2012,07,12,11,16,21.60
2012,07,12,11,17,21.60
2012,07,12,11,18,21.70
2012,07,12,11,19,21.70
2012,07,12,11,20,21.80
2012,07,12,11,21,21.80
2012,07,12,11,22,21.80
2012,07,12,11,23,21.80
2012,07,12,11,24,21.90
2012,07,12,11,25,21.90
2012,07,12,11,26,22.00
2012,07,12,11,27,22.10
2012,07,12,11,28,22.20
2012,07,12,11,29,22.30
2012,07,12,11,30,22.40
2012,07,12,11,31,22.50
2012,07,12,11,32,22.60
2012,07,12,11,33,22.70
2012,07,12,11,34,22.80
2012,07,12,11,35,22.80
2012,07,12,11,36,22.90
2012,07,12,11,37,23.00
2012,07,12,11,38,23.10
2012,07,12,11,39,23.10
2012,07,12,11,40,23.20
2012,07,12,11,41,23.30
2012,07,12,11,42,23.40
2012,07,12,11,43,23.50
2012,07,12,11,44,23.60
2012,07,12,11,45,23.60
2012,07,12,11,46,23.70
2012,07,12,11,47,23.80
2012,07,12,11,48,23.90
2012,07,12,11,49,24.00
2012,07,12,11,50,24.10
2012,07,12,11,51,24.20
2012,07,12,11,52,24.40
2012,07,12,11,53,24.40
2012,07,12,11,54,24.50
2012,07,12,11,55,24.60
2012,07,12,11,56,24.60
2012,07,12,11,57,24.70
2012,07,12,11,58,24.60
2012,07,12,11,59,24.60
2012,07,12,12,00,24.50
2012,07,12,12,01,24.40
2012,07,12,12,02,24.30
2012,07,12,12,03,24.20
2012,07,12,12,04,24.10
2012,07,12,12,05,23.90
2012,07,12,12,06,23.80
2012,07,12,12,07,23.70
2012,07,12,12,08,23.70
2012,07,12,12,09,23.60
2012,07,12,12,10,23.60
2012,07,12,12,11,23.60
2012,07,12,12,12,23.70
2012,07,12,12,13,23.70
2012,07,12,12,14,23.80
2012,07,12,12,15,23.80
2012,07,12,12,16,23.80
2012,07,12,12,17,23.80
2012,07,12,12,18,23.90
2012,07,12,12,19,23.90
2012,07,12,12,20,23.90
2012,07,12,12,21,24.00
2012,07,12,12,22,24.00
2012,07,12,12,23,24.00
2012,07,12,12,24,24.00
2012,07,12,12,25,24.00
2012,07,12,12,26,24.10
2012,07,12,12,27,24.10
2012,07,12,12,28,24.20
2012,07,12,12,29,24.20
2012,07,12,12,30,24.20
2012,07,12,12,31,24.20
2012,07,12,12,32,24.20
2012,07,12,12,33,24.10
2012,07,12,12,34,24.00
2012,07,12,12,35,23.90
2012,07,12,12,36,23.80
2012,07,12,12,37,23.60
2012,07,12,12,38,23.40
2012,07,12,12,39,23.30
2012,07,12,12,40,23.20
2012,07,12,12,41,23.20
2012,07,12,12,42,23.20
2012,07,12,12,43,23.20
2012,07,12,12,44,23.30
2012,07,12,12,45,23.40
2012,07,12,12,46,23.50
2012,07,12,12,47,23.70
2012,07,12,12,48,23.80
2012,07,12,12,49,23.80
2012,07,12,12,50,23.90
2012,07,12,12,51,23.90
2012,07,12,12,52,24.00
2012,07,12,12,53,24.10
2012,07,12,12,54,24.10
2012,07,12,12,55,24.20
2012,07,12,12,56,24.20
2012,07,12,12,57,24.20
2012,07,12,12,58,24.20
2012,07,12,12,59,24.10
2012,07,12,13,00,24.00
2012,07,12,13,01,23.90
2012,07,12,13,02,23.80
2012,07,12,13,03,23.70
2012,07,12,13,04,23.60
2012,07,12,13,05,23.60
2012,07,12,13,06,23.50
2012,07,12,13,07,23.40
2012,07,12,13,08,23.30
2012,07,12,13,09,23.30
2012,07,12,13,10,23.30
2012,07,12,13,11,23.30
2012,07,12,13,12,23.20
2012,07,12,13,13,23.20
2012,07,12,13,14,23.10
2012,07,12,13,15,23.10
2012,07,12,13,16,23.20
2012,07,12,13,17,23.30
2012,07,12,13,18,23.40
2012,07,12,13,19,23.50
2012,07,12,13,20,23.60
2012,07,12,13,21,23.70
2012,07,12,13,22,23.80
2012,07,12,13,23,23.90
2012,07,12,13,24,23.90
2012,07,12,13,25,24.00
2012,07,12,13,26,24.00
2012,07,12,13,27,24.00
2012,07,12,13,28,24.00
2012,07,12,13,29,24.10
2012,07,12,13,30,24.20
2012,07,12,13,31,24.20
2012,07,12,13,32,24.30
2012,07,12,13,33,24.30
2012,07,12,13,34,24.30
2012,07,12,13,35,24.30
2012,07,12,13,36,24.30
2012,07,12,13,37,24.20
2012,07,12,13,38,24.00
2012,07,12,13,39,23.80
2012,07,12,13,40,23.60
2012,07,12,13,41,23.50
2012,07,12,13,42,23.30
2012,07,12,13,43,23.20
2012,07,12,13,44,23.00
2012,07,12,13,45,22.80
2012,07,12,13,46,22.70
2012,07,12,13,47,22.70
2012,07,12,13,48,22.70
2012,07,12,13,49,22.80
2012,07,12,13,50,22.80
2012,07,12,13,51,22.80
2012,07,12,13,52,22.90
2012,07,12,13,53,23.00
2012,07,12,13,54,23.00
2012,07,12,13,55,23.00
2012,07,12,13,56,22.90
2012,07,12,13,57,22.80
2012,07,12,13,58,22.80
2012,07,12,13,59,22.70
2012,07,12,14,00,22.70
2012,07,12,14,01,22.70
2012,07,12,14,02,22.70
2012,07,12,14,03,22.60
2012,07,12,14,04,22.60
2012,07,12,14,05,22.50
2012,07,12,14,06,22.40
2012,07,12,14,07,22.40
2012,07,12,14,08,22.40
2012,07,12,14,09,22.50
2012,07,12,14,10,22.60
2012,07,12,14,11,22.60
2012,07,12,14,12,22.80
2012,07,12,14,13,22.90
2012,07,12,14,14,22.90
2012,07,12,14,15,22.90
2012,07,12,14,16,22.90
2012,07,12,14,17,22.80
2012,07,12,14,18,22.80
2012,07,12,14,19,22.80
2012,07,12,14,20,22.70
2012,07,12,14,21,22.70
2012,07,12,14,22,22.70
2012,07,12,14,23,22.50
2012,07,12,14,24,22.40
2012,07,12,14,25,22.40
2012,07,12,14,26,22.30
2012,07,12,14,27,22.40
2012,07,12,14,28,22.40
2012,07,12,14,29,22.40
2012,07,12,14,30,22.40
2012,07,12,14,31,22.30
2012,07,12,14,32,22.30
2012,07,12,14,33,22.30
2012,07,12,14,34,22.30
2012,07,12,14,35,22.30
2012,07,12,14,36,22.40
2012,07,12,14,37,22.50
2012,07,12,14,38,22.50
2012,07,12,14,39,22.50
2012,07,12,14,40,22.50
2012,07,12,14,41,22.60
2012,07,12,14,42,22.70
2012,07,12,14,43,22.70
2012,07,12,14,44,22.70
2012,07,12,14,45,22.80
2012,07,12,14,46,22.90
2012,07,12,14,47,23.00
2012,07,12,14,48,23.10
2012,07,12,14,49,23.20
2012,07,12,14,50,23.30
2012,07,12,14,51,23.30
2012,07,12,14,52,23.20
2012,07,12,14,53,23.20
2012,07,12,14,54,23.30
2012,07,12,14,55,23.30
2012,07,12,14,56,23.30
2012,07,12,14,57,23.30
2012,07,12,14,58,23.40
2012,07,12,14,59,23.40
2012,07,12,15,00,23.30
2012,07,12,15,01,23.00
2012,07,12,15,02,22.80
2012,07,12,15,03,22.70
2012,07,12,15,04,22.60
2012,07,12,15,05,22.60
2012,07,12,15,06,22.50
2012,07,12,15,07,22.40
2012,07,12,15,08,22.40
2012,07,12,15,09,22.40
2012,07,12,15,10,22.40
2012,07,12,15,11,22.50
2012,07,12,15,12,22.60
2012,07,12,15,13,22.80
2012,07,12,15,14,22.80
2012,07,12,15,15,22.90
2012,07,12,15,16,22.90
2012,07,12,15,17,23.00
2012,07,12,15,18,23.10
2012,07,12,15,19,23.10
2012,07,12,15,20,23.00
2012,07,12,15,21,22.90
2012,07,12,15,22,22.80
2012,07,12,15,23,22.70
2012,07,12,15,24,22.70
2012,07,12,15,25,22.70
2012,07,12,15,26,22.70
2012,07,12,15,27,22.70
2012,07,12,15,28,22.80
2012,07,12,15,29,22.90
2012,07,12,15,30,22.90
2012,07,12,15,31,22.90
2012,07,12,15,32,23.00
2012,07,12,15,33,23.10
2012,07,12,15,34,23.20
2012,07,12,15,35,23.40
2012,07,12,15,36,23.50
2012,07,12,15,37,23.60
2012,07,12,15,38,23.60
2012,07,12,15,39,23.60
2012,07,12,15,40,23.60
2012,07,12,15,41,23.70
2012,07,12,15,42,23.70
2012,07,12,15,43,23.70
2012,07,12,15,44,23.70
2012,07,12,15,45,23.60
2012,07,12,15,46,23.50
2012,07,12,15,47,23.50
2012,07,12,15,48,23.50
2012,07,12,15,49,23.50
2012,07,12,15,50,23.50
2012,07,12,15,51,23.60
2012,07,12,15,52,23.60
2012,07,12,15,53,23.70
2012,07,12,15,54,23.80
2012,07,12,15,55,24.00
2012,07,12,15,56,24.10
2012,07,12,15,57,24.20
2012,07,12,15,58,24.30
2012,07,12,15,59,24.40
2012,07,12,16,00,24.50
2012,07,12,16,01,24.50
2012,07,12,16,02,24.40
2012,07,12,16,03,24.40
2012,07,12,16,04,24.30
2012,07,12,16,05,24.20
2012,07,12,16,06,24.10
2012,07,12,16,07,24.00
2012,07,12,16,08,24.00
2012,07,12,16,09,24.10
2012,07,12,16,10,24.20
2012,07,12,16,11,24.30
2012,07,12,16,12,24.40
2012,07,12,16,13,24.40
2012,07,12,16,14,24.40
2012,07,12,16,15,24.40
2012,07,12,16,16,24.40
2012,07,12,16,17,24.30
2012,07,12,16,18,24.30
2012,07,12,16,19,24.30
2012,07,12,16,20,24.20
2012,07,12,16,21,24.20
2012,07,12,16,22,24.10
2012,07,12,16,23,24.10
2012,07,12,16,24,24.00
2012,07,12,16,25,24.00
2012,07,12,16,26,24.00
2012,07,12,16,27,23.90
2012,07,12,16,28,23.90
2012,07,12,16,29,23.90
2012,07,12,16,30,23.90
2012,07,12,16,31,23.90
2012,07,12,16,32,24.00
2012,07,12,16,33,24.00
2012,07,12,16,34,24.10
2012,07,12,16,35,24.00
2012,07,12,16,36,24.00
2012,07,12,16,37,24.00
2012,07,12,16,38,24.10
2012,07,12,16,39,24.20
2012,07,12,16,40,24.20
2012,07,12,16,41,24.30
2012,07,12,16,42,24.40
2012,07,12,16,43,24.40
2012,07,12,16,44,24.40
2012,07,12,16,45,24.40
2012,07,12,16,46,24.40
2012,07,12,16,47,24.50
2012,07,12,16,48,24.60
2012,07,12,16,49,24.70
2012,07,12,16,50,24.70
2012,07,12,16,51,24.70
2012,07,12,16,52,24.60
2012,07,12,16,53,24.40
2012,07,12,16,54,24.30
2012,07,12,16,55,24.10
2012,07,12,16,56,24.10
2012,07,12,16,57,24.10
2012,07,12,16,58,24.10
2012,07,12,16,59,24.10
2012,07,12,17,00,24.10
2012,07,12,17,01,24.10
2012,07,12,17,02,24.10
2012,07,12,17,03,24.00
2012,07,12,17,04,24.00
2012,07,12,17,05,24.10
2012,07,12,17,06,24.10
2012,07,12,17,07,24.10
2012,07,12,17,08,24.10
2012,07,12,17,09,24.10
2012,07,12,17,10,24.00
2012,07,12,17,11,23.90
2012,07,12,17,12,23.90
2012,07,12,17,13,23.90
2012,07,12,17,14,23.90
2012,07,12,17,15,23.90
2012,07,12,17,16,23.90
2012,07,12,17,17,24.00
2012,07,12,17,18,24.00
2012,07,12,17,19,24.10